Perryton, TX

6:02 AM CDT on May 27, 2017 (GMT -0500)
Perryton Ochiltree County

Weather History for KPYX - March, 2013

Change the Weather History Date:

Thursday, March 7, 2013

  Actual Average Record
Temperature  
Mean Temperature 56 °F -  
Max Temperature 81 °F 59 °F 83 °F (1972)
Min Temperature 32 °F 25 °F 3 °F (1982)
Degree Days  
Heating Degree Days 8    
Growing Degree Days 6 (Base 50)    
Moisture  
Dew Point 26 °F    
Average Humidity 40    
Maximum Humidity 65    
Minimum Humidity 13    
Precipitation  
Precipitation 0.00 in - - ()
Sea Level Pressure  
Sea Level Pressure 29.94 in    
Wind  
Wind Speed 14 mph (South)    
Max Wind Speed 26 mph    
Max Gust Speed 33 mph    
Visibility 10 miles    
Events      
Averages and records for this station are not official NWS values.
T = Trace of Precipitation, MM = Missing Value Source: NWS Daily Summary

Daily Weather History Graph

Daily Weather History Graph

Search for Another Location

Airport or City:

Trip Planner

Search our weather history database for the weather conditions in past years. The results will help you decide how hot, cold, wet, or windy it might be!

Date:

Astronomy

Mar. 07, 2013 Rise Set
Actual Time 7:04 AM CST 6:43 PM CST
Civil Twilight 6:39 AM CST 7:09 PM CST
Nautical Twilight 6:09 AM CST 7:39 PM CST
Astronomical Twilight 5:39 AM CST 8:09 PM CST
Moon 4:00 AM CST (3/7) 2:39 PM CST (3/7)
Length of Visible Light 12h 30m
Length of Day
11h 38m
Waning Crescent, 20% of the Moon is Illuminated
Mar 7
Waning Crescent
Mar 11
New
Mar 19
First Quarter
Mar 27
Full
Apr 2
Last Quarter

Hourly Weather History & Observations

Time (CST) Temp. Windchill Dew Point Humidity Pressure Visibility Wind Dir Wind Speed Gust Speed Precip Events Conditions
12:15 AM 38.7 °F 29.5 °F 22.1 °F 51% 29.99 in 10.0 mi South 17.3 mph - N/A   Clear
12:35 AM 39.4 °F 31.1 °F 21.2 °F 48% 29.99 in 10.0 mi South 15.0 mph - N/A   Clear
12:55 AM 38.8 °F 30.0 °F 21.2 °F 49% 29.99 in 10.0 mi South 16.1 mph - N/A   Clear
1:15 AM 39.2 °F 31.2 °F 21.2 °F 49% 29.99 in 10.0 mi South 13.8 mph - N/A   Clear
1:35 AM 38.7 °F 29.8 °F 21.2 °F 50% 29.98 in 10.0 mi South 16.1 mph - N/A   Clear
1:55 AM 38.7 °F 30.5 °F 21.2 °F 50% 29.98 in 10.0 mi South 13.8 mph - N/A   Clear
2:15 AM 38.7 °F 30.5 °F 21.0 °F 49% 29.98 in 10.0 mi South 13.8 mph - N/A   Clear
2:35 AM 37.8 °F 30.2 °F 21.2 °F 51% 29.97 in 10.0 mi South 11.5 mph - N/A   Clear
2:55 AM 36.7 °F 28.9 °F 21.2 °F 54% 29.96 in 10.0 mi South 11.5 mph - N/A   Clear
3:15 AM 36.5 °F 28.7 °F 21.6 °F 55% 29.95 in 10.0 mi South 11.5 mph - N/A   Clear
3:35 AM 36.1 °F 27.7 °F 21.6 °F 56% 29.94 in 10.0 mi South 12.7 mph - N/A   Clear
3:55 AM 36.1 °F 28.2 °F 21.2 °F 55% 29.93 in 10.0 mi South 11.5 mph - N/A   Clear
4:15 AM 35.6 °F 27.5 °F 21.2 °F 56% 29.93 in 10.0 mi South 11.5 mph - N/A   Clear
4:35 AM 36.5 °F 28.2 °F 20.8 °F 53% 29.93 in 10.0 mi South 12.7 mph - N/A   Clear
4:55 AM 36.5 °F 28.2 °F 20.8 °F 53% 29.92 in 10.0 mi South 12.7 mph - N/A   Clear
5:15 AM 35.8 °F 27.3 °F 21.2 °F 55% 29.92 in 10.0 mi South 12.7 mph - N/A   Clear
5:35 AM 35.8 °F 27.3 °F 21.2 °F 55% 29.92 in 10.0 mi South 12.7 mph - N/A   Clear
5:55 AM 35.4 °F 28.4 °F 21.2 °F 56% 29.94 in 10.0 mi South 9.2 mph - N/A   Clear
6:15 AM 34.7 °F 27.5 °F 21.6 °F 59% 29.94 in 10.0 mi South 9.2 mph - N/A   Clear
6:35 AM 34.2 °F 27.5 °F 21.7 °F 60% 29.94 in 10.0 mi South 8.1 mph - N/A   Clear
6:55 AM 32.4 °F 24.6 °F 21.7 °F 65% 29.94 in 10.0 mi South 9.2 mph - N/A   Clear
7:15 AM 33.3 °F 25.1 °F 21.9 °F 63% 29.94 in 10.0 mi South 10.4 mph - N/A   Clear
7:35 AM 34.0 °F 26.6 °F 22.6 °F 63% 29.94 in 10.0 mi South 9.2 mph - N/A   Clear
7:55 AM 36.3 °F 30.1 °F 23.0 °F 59% 29.96 in 10.0 mi South 8.1 mph - N/A   Clear
8:15 AM 39.7 °F 32.7 °F 23.7 °F 53% 29.96 in 10.0 mi South 11.5 mph - N/A   Clear
8:35 AM 42.3 °F 35.5 °F 23.7 °F 48% 29.97 in 10.0 mi South 12.7 mph - N/A   Clear
8:55 AM 45.3 °F 39.0 °F 24.3 °F 44% 29.97 in 10.0 mi South 13.8 mph - N/A   Clear
9:15 AM 48.7 °F - 25.0 °F 40% 29.97 in 10.0 mi South 12.7 mph - N/A   Clear
9:35 AM 51.6 °F - 25.0 °F 36% 29.97 in 10.0 mi SSW 10.4 mph - N/A   Clear
9:55 AM 53.6 °F - 25.5 °F 34% 29.96 in 10.0 mi SSW 12.7 mph - N/A   Clear
10:15 AM 56.5 °F - 27.1 °F 32% 29.96 in 10.0 mi SSW 13.8 mph 19.6 mph N/A   Clear
10:35 AM 59.9 °F - 28.2 °F 30% 29.96 in 10.0 mi South 13.8 mph - N/A   Clear
10:55 AM 62.1 °F - 29.1 °F 29% 29.96 in 10.0 mi SSW 13.8 mph - N/A   Clear
11:15 AM 63.3 °F - 29.1 °F 28% 29.96 in 10.0 mi SSW 11.5 mph - N/A   Clear
11:35 AM 64.4 °F - 29.3 °F 27% 29.96 in 10.0 mi South 12.7 mph - N/A   Clear
11:55 AM 66.7 °F - 30.0 °F 25% 29.96 in 10.0 mi SSW 12.7 mph 17.3 mph N/A   Clear
12:15 PM 69.1 °F - 29.8 °F 23% 29.96 in 10.0 mi SSW 12.7 mph - N/A   Clear
12:35 PM 71.8 °F - 29.5 °F 21% 29.94 in 10.0 mi South 12.7 mph - N/A   Clear
12:55 PM 73.6 °F - 29.7 °F 20% 29.94 in 10.0 mi South 12.7 mph - N/A   Clear
1:15 PM 76.5 °F - 28.6 °F 17% 29.93 in 10.0 mi SSW 13.8 mph 20.7 mph N/A   Clear
1:35 PM 78.6 °F - 27.9 °F 16% 29.91 in 10.0 mi South 15.0 mph 20.7 mph N/A   Clear
1:55 PM 80.2 °F - 27.0 °F 14% 29.90 in 10.0 mi South 17.3 mph 21.9 mph N/A   Clear
2:15 PM 81.3 °F - 26.4 °F 13% 29.89 in 10.0 mi South 16.1 mph 23.0 mph N/A   Clear
2:35 PM 81.1 °F - 27.3 °F 14% 29.88 in 10.0 mi South 20.7 mph - N/A   Clear
2:55 PM 80.8 °F - 28.4 °F 15% 29.87 in 10.0 mi South 18.4 mph 25.3 mph N/A   Clear
3:15 PM 79.7 °F - 28.6 °F 15% 29.87 in 10.0 mi SSE 26.5 mph 33.4 mph N/A   Clear
3:35 PM 78.4 °F - 28.8 °F 16% 29.87 in 10.0 mi SSE 23.0 mph 32.2 mph N/A   Clear
3:55 PM 78.4 °F - 29.1 °F 16% 29.88 in 10.0 mi SSE 23.0 mph 27.6 mph N/A   Clear
4:15 PM 75.0 °F - 29.1 °F 18% 29.87 in 10.0 mi SSE 24.2 mph 29.9 mph N/A   Clear
8:35 PM 56.3 °F - 27.3 °F 33% 29.93 in 10.0 mi South 16.1 mph - N/A   Clear
8:55 PM 56.5 °F - 27.3 °F 33% 29.93 in 10.0 mi South 18.4 mph 24.2 mph N/A   Clear
9:15 PM 56.3 °F - 27.5 °F 33% 29.93 in 10.0 mi SSE 17.3 mph - N/A   Clear
9:35 PM 54.7 °F - 28.4 °F 36% 29.94 in 10.0 mi SSE 15.0 mph - N/A   Clear
9:55 PM 54.1 °F - 29.5 °F 39% 29.94 in 10.0 mi SSE 16.1 mph - N/A   Clear
10:15 PM 53.1 °F - 30.6 °F 42% 29.94 in 10.0 mi SSE 12.7 mph - N/A   Clear
10:35 PM 52.9 °F - 31.6 °F 44% 29.95 in 10.0 mi South 15.0 mph - N/A   Clear
10:55 PM 54.3 °F - 32.2 °F 43% 29.96 in 10.0 mi SSE 17.3 mph - N/A   Clear
11:15 PM 53.6 °F - 33.1 °F 46% 29.96 in 10.0 mi SSE 13.8 mph - N/A   Clear
11:35 PM 53.2 °F - 33.8 °F 48% 29.95 in 10.0 mi South 12.7 mph - N/A   Clear
11:55 PM 53.6 °F - 35.1 °F 50% 29.96 in 10.0 mi South 13.8 mph - N/A   Clear